Queen City, MO (63561)

10:26 AM CDT on August 30, 2014 (GMT -0500)
KMOLANCA2 | Change Station
CLOSE
Current Station
Personal Weather Station
Location: Lancaster, MO
Elevation: 915 ft
Nearby Weather Stations

Elev 915 ft 40.52 °N, 92.52 °W | Updated 14 minutes ago

Mostly Cloudy
Mostly Cloudy
74.8 °F
Feels Like 74 °F
N
1.0
Wind Variable Wind from West

Today
High -- | Low -- °F
--% Chance of Precip.
Yesterday
High -- | Low -- °F
Precip. -- in
6:35 AM 7:45 PM
Waxing Crescent, 22% visible
Pressure 29.93 in
Visibility 10.0 miles
Clouds Scattered Clouds 1300 ft
Heat Index 74 °F
Dew Point 71 °F
Humidity 89%
Rainfall 0.00 in
Snow Depth Not available.
UV 4 out of 12
Pollen 6.30 out of 12
Air Quality Not available.
Flu Activity Not available.
SPECI KIRK 301508Z AUTO 29005KT 10SM SCT013 24/21 A2993 RMK AO2 T02440206

More Conditions Fewer Conditions

Pressure 29.93 in
Visibility 10.0 miles
Clouds Scattered Clouds 1300 ft
Heat Index 74 °F
Dew Point 71 °F
Humidity 89%
Rainfall 0.00 in
Snow Depth Not available.
UV 4 out of 12
Pollen 6.30 out of 12
Air Quality Not available.
Flu Activity Not available.
SPECI KIRK 301508Z AUTO 29005KT 10SM SCT013 24/21 A2993 RMK AO2 T02440206

More Conditions Fewer Conditions

10-Day Weather Forecast

Almanac

Astronomy

Aug. 30, 2014 Rise Set
Actual Time 6:35 AM CDT 7:45 PM CDT
Civil Twilight 6:07 AM CDT 8:13 PM CDT
Nautical Twilight 5:34 AM CDT 8:46 PM CDT
Astronomical Twilight 4:58 AM CDT 9:21 PM CDT
Moon 11:24 AM CDT 10:18 PM CDT
Length of Visible Light 14h 05m
Length of Day
13h 09m
Tomorrow will be 2m 32s shorter.
Waxing Crescent, 22% of the Moon is Illuminated
Today
Waxing Crescent
Sep 2
First Quarter
Sep 8
Full
Sep 15
Last Quarter
Sep 24
New

Today's Extremes

State Highs State Lows

Community

WunderPhotos

Upload Photos

1,748,548 photos uploaded!

WunderBlogs® & News

Nearby

Snow Depth

Station Depth Elevation
No new snow has been reported.

Earthquake Activity

City Distance Mag. Time & Date
No recent earthquake activity has been reported nearby.
Minimum magnitude displayed is 2.5.

Coastal Water Temperatures

Place Temperature
No Stations Reporting

Nearby Weather Stations